Data supplied by UK-AIR on 12/3/2024
All Data GMT hour ending 
Status: R =Ratified P=Provisional,P*=As supplied
,,Bury Whitefield Roadside,,,,,,,,,,,,,,,,,,,,,,,
Date,time,"PM<sub>10</sub> particulate matter (Hourly measured)",status,unit,"Nitric oxide",status,unit,"Nitrogen dioxide",status,unit,"Nitrogen oxides as nitrogen dioxide",status,unit
 
01-01-2023,01:00,12.561,R,ugm-3 (Ref.eq),1.29841,R,ugm-3,7.19221,R,ugm-3,9.18308,R,ugm-3
01-01-2023,02:00,7.730,R,ugm-3 (Ref.eq),1.61182,R,ugm-3,6.83620,R,ugm-3,9.30763,R,ugm-3
01-01-2023,03:00,6.763,R,ugm-3 (Ref.eq),2.35057,R,ugm-3,11.32265,R,ugm-3,14.92681,R,ugm-3
01-01-2023,04:00,5.797,R,ugm-3 (Ref.eq),1.98120,R,ugm-3,6.19537,R,ugm-3,9.23316,R,ugm-3
01-01-2023,05:00,6.763,R,ugm-3 (Ref.eq),1.04097,R,ugm-3,4.00573,R,ugm-3,5.60185,R,ugm-3
01-01-2023,06:00,5.797,R,ugm-3 (Ref.eq),0.63801,R,ugm-3,6.14237,R,ugm-3,7.12064,R,ugm-3
01-01-2023,07:00,3.865,R,ugm-3 (Ref.eq),0.47012,R,ugm-3,5.18104,R,ugm-3,5.90187,R,ugm-3
01-01-2023,08:00,5.797,R,ugm-3 (Ref.eq),1.14171,R,ugm-3,5.98220,R,ugm-3,7.73280,R,ugm-3
01-01-2023,09:00,6.763,R,ugm-3 (Ref.eq),1.17529,R,ugm-3,9.24061,R,ugm-3,11.04269,R,ugm-3
01-01-2023,10:00,3.865,R,ugm-3 (Ref.eq),1.17529,R,ugm-3,8.86681,R,ugm-3,10.66889,R,ugm-3
01-01-2023,11:00,5.797,R,ugm-3 (Ref.eq),0.94023,R,ugm-3,11.32414,R,ugm-3,12.76580,R,ugm-3
01-01-2023,12:00,8.696,R,ugm-3 (Ref.eq),1.57824,R,ugm-3,11.43101,R,ugm-3,13.85094,R,ugm-3
01-01-2023,13:00,12.561,R,ugm-3 (Ref.eq),3.08932,R,ugm-3,13.67445,R,ugm-3,18.41135,R,ugm-3
01-01-2023,14:00,16.425,R,ugm-3 (Ref.eq),1.51108,R,ugm-3,12.98049,R,ugm-3,15.29745,R,ugm-3
01-01-2023,15:00,7.730,R,ugm-3 (Ref.eq),1.00739,R,ugm-3,15.22437,R,ugm-3,16.76901,R,ugm-3
01-01-2023,16:00,16.425,R,ugm-3 (Ref.eq),0.87307,R,ugm-3,15.59853,R,ugm-3,16.93722,R,ugm-3
01-01-2023,17:00,12.561,R,ugm-3 (Ref.eq),0.70517,R,ugm-3,15.81246,R,ugm-3,16.89371,R,ugm-3
01-01-2023,18:00,16.425,R,ugm-3 (Ref.eq),3.82807,R,ugm-3,19.71190,R,ugm-3,25.58153,R,ugm-3
01-01-2023,19:00,14.493,R,ugm-3 (Ref.eq),4.16387,R,ugm-3,27.45835,R,ugm-3,33.84286,R,ugm-3
01-01-2023,20:00,10.628,R,ugm-3 (Ref.eq),3.92881,R,ugm-3,22.27672,R,ugm-3,28.30081,R,ugm-3
01-01-2023,21:00,10.628,R,ugm-3 (Ref.eq),0.80591,R,ugm-3,25.58988,R,ugm-3,26.82559,R,ugm-3
01-01-2023,22:00,19.324,R,ugm-3 (Ref.eq),0.63801,R,ugm-3,35.15326,R,ugm-3,36.13153,R,ugm-3
01-01-2023,23:00,20.290,R,ugm-3 (Ref.eq),2.98858,R,ugm-3,42.52598,R,ugm-3,47.10841,R,ugm-3
01-01-2023,24:00,18.358,R,ugm-3 (Ref.eq),3.19006,R,ugm-3,27.51381,R,ugm-3,32.40517,R,ugm-3
02-01-2023,01:00,17.392,R,ugm-3 (Ref.eq),2.46306,R,ugm-3,16.95671,R,ugm-3,20.73335,R,ugm-3
02-01-2023,02:00,14.493,R,ugm-3 (Ref.eq),0.97403,R,ugm-3,13.35919,R,ugm-3,14.85268,R,ugm-3
02-01-2023,03:00,17.392,R,ugm-3 (Ref.eq),0.40305,R,ugm-3,15.22984,R,ugm-3,15.84784,R,ugm-3
02-01-2023,04:00,8.696,R,ugm-3 (Ref.eq),0.33587,R,ugm-3,8.76393,R,ugm-3,9.27893,R,ugm-3
02-01-2023,05:00,12.561,R,ugm-3 (Ref.eq),0.97403,R,ugm-3,8.49671,R,ugm-3,9.99020,R,ugm-3
02-01-2023,06:00,11.594,R,ugm-3 (Ref.eq),1.17555,R,ugm-3,9.35183,R,ugm-3,11.15431,R,ugm-3
02-01-2023,07:00,7.730,R,ugm-3 (Ref.eq),1.78012,R,ugm-3,9.29837,R,ugm-3,12.02785,R,ugm-3
02-01-2023,08:00,7.730,R,ugm-3 (Ref.eq),5.87775,R,ugm-3,20.30662,R,ugm-3,29.31905,R,ugm-3
02-01-2023,09:00,9.662,R,ugm-3 (Ref.eq),9.37082,R,ugm-3,30.62052,R,ugm-3,44.98891,R,ugm-3
02-01-2023,10:00,10.628,R,ugm-3 (Ref.eq),17.46533,R,ugm-3,38.68898,R,ugm-3,65.46878,R,ugm-3
02-01-2023,11:00,12.561,R,ugm-3 (Ref.eq),18.27142,R,ugm-3,42.16321,R,ugm-3,70.17900,R,ugm-3
02-01-2023,12:00,8.696,R,ugm-3 (Ref.eq),18.54012,R,ugm-3,37.72781,R,ugm-3,66.15559,R,ugm-3
02-01-2023,13:00,11.594,R,ugm-3 (Ref.eq),24.28352,R,ugm-3,48.20229,R,ugm-3,85.43650,R,ugm-3
02-01-2023,14:00,9.662,R,ugm-3 (Ref.eq),18.13707,R,ugm-3,41.09600,R,ugm-3,68.90578,R,ugm-3
02-01-2023,15:00,9.662,R,ugm-3 (Ref.eq),17.33098,R,ugm-3,44.14331,R,ugm-3,70.71711,R,ugm-3
02-01-2023,16:00,14.493,R,ugm-3 (Ref.eq),29.12007,R,ugm-3,66.80301,R,ugm-3,111.45317,R,ugm-3
02-01-2023,17:00,22.223,R,ugm-3 (Ref.eq),58.94548,R,ugm-3,86.89359,R,ugm-3,177.27540,R,ugm-3
02-01-2023,18:00,22.223,R,ugm-3 (Ref.eq),51.72424,R,ugm-3,81.49805,R,ugm-3,160.80744,R,ugm-3
02-01-2023,19:00,28.020,R,ugm-3 (Ref.eq),74.05970,R,ugm-3,80.37146,R,ugm-3,193.92809,R,ugm-3
02-01-2023,20:00,36.716,R,ugm-3 (Ref.eq),114.12919,R,ugm-3,79.13380,R,ugm-3,254.12946,R,ugm-3
02-01-2023,21:00,34.783,R,ugm-3 (Ref.eq),110.60254,R,ugm-3,68.49884,R,ugm-3,238.08704,R,ugm-3
02-01-2023,22:00,29.952,R,ugm-3 (Ref.eq),115.10322,R,ugm-3,62.19137,R,ugm-3,238.68051,R,ugm-3
02-01-2023,23:00,30.918,R,ugm-3 (Ref.eq),113.12158,R,ugm-3,63.42207,R,ugm-3,236.87274,R,ugm-3
02-01-2023,24:00,21.256,R,ugm-3 (Ref.eq),49.33955,R,ugm-3,54.61808,R,ugm-3,130.27100,R,ugm-3
03-01-2023,01:00,17.392,R,ugm-3 (Ref.eq),12.36287,R,ugm-3,51.60750,R,ugm-3,70.56362,R,ugm-3
03-01-2023,02:00,7.730,R,ugm-3 (Ref.eq),1.52296,R,ugm-3,29.36989,R,ugm-3,31.70507,R,ugm-3
03-01-2023,03:00,11.594,R,ugm-3 (Ref.eq),2.95634,R,ugm-3,23.79156,R,ugm-3,28.32454,R,ugm-3
03-01-2023,04:00,9.662,R,ugm-3 (Ref.eq),3.22510,R,ugm-3,26.35819,R,ugm-3,31.30327,R,ugm-3
03-01-2023,05:00,7.730,R,ugm-3 (Ref.eq),0.70549,R,ugm-3,11.12103,R,ugm-3,12.20277,R,ugm-3
03-01-2023,06:00,11.594,R,ugm-3 (Ref.eq),0.60471,R,ugm-3,11.28163,R,ugm-3,12.20883,R,ugm-3
03-01-2023,07:00,9.662,R,ugm-3 (Ref.eq),0.60471,R,ugm-3,10.21240,R,ugm-3,11.13961,R,ugm-3
03-01-2023,08:00,11.594,R,ugm-3 (Ref.eq),1.57895,R,ugm-3,15.61271,R,ugm-3,18.03374,R,ugm-3
03-01-2023,09:00,9.662,R,ugm-3 (Ref.eq),3.49385,R,ugm-3,21.81492,R,ugm-3,27.17209,R,ugm-3
03-01-2023,10:00,9.662,R,ugm-3 (Ref.eq),2.04928,R,ugm-3,19.78373,R,ugm-3,22.92592,R,ugm-3
03-01-2023,11:00,9.662,R,ugm-3 (Ref.eq),3.69542,R,ugm-3,19.67659,R,ugm-3,25.34282,R,ugm-3
03-01-2023,12:00,7.730,R,ugm-3 (Ref.eq),2.01568,R,ugm-3,17.75233,R,ugm-3,20.84301,R,ugm-3
03-01-2023,13:00,8.696,R,ugm-3 (Ref.eq),2.38523,R,ugm-3,19.67751,R,ugm-3,23.33481,R,ugm-3
03-01-2023,14:00,10.628,R,ugm-3 (Ref.eq),1.54536,R,ugm-3,21.33571,R,ugm-3,23.70523,R,ugm-3
03-01-2023,15:00,6.763,R,ugm-3 (Ref.eq),1.78052,R,ugm-3,20.26644,R,ugm-3,22.99654,R,ugm-3
03-01-2023,16:00,3.865,R,ugm-3 (Ref.eq),3.15791,R,ugm-3,17.16473,R,ugm-3,22.00679,R,ugm-3
03-01-2023,17:00,2.899,R,ugm-3 (Ref.eq),3.25869,R,ugm-3,16.20236,R,ugm-3,21.19895,R,ugm-3
03-01-2023,18:00,2.899,R,ugm-3 (Ref.eq),4.26653,R,ugm-3,16.68359,R,ugm-3,23.22552,R,ugm-3
03-01-2023,19:00,5.797,R,ugm-3 (Ref.eq),3.76261,R,ugm-3,19.57176,R,ugm-3,25.34102,R,ugm-3
03-01-2023,20:00,5.797,R,ugm-3 (Ref.eq),5.67751,R,ugm-3,19.89235,R,ugm-3,28.59774,R,ugm-3
03-01-2023,21:00,7.730,R,ugm-3 (Ref.eq),4.70326,R,ugm-3,18.12809,R,ugm-3,25.33966,R,ugm-3
03-01-2023,22:00,3.865,R,ugm-3 (Ref.eq),1.64614,R,ugm-3,13.85082,R,ugm-3,16.37487,R,ugm-3
03-01-2023,23:00,1.932,R,ugm-3 (Ref.eq),2.48601,R,ugm-3,11.76502,R,ugm-3,15.57685,R,ugm-3
03-01-2023,24:00,4.831,R,ugm-3 (Ref.eq),3.72902,R,ugm-3,13.15533,R,ugm-3,18.87308,R,ugm-3
04-01-2023,01:00,4.831,R,ugm-3 (Ref.eq),1.65771,R,ugm-3,7.27437,R,ugm-3,9.81616,R,ugm-3
04-01-2023,02:00,1.932,R,ugm-3 (Ref.eq),0.89606,R,ugm-3,5.77695,R,ugm-3,7.15089,R,ugm-3
04-01-2023,03:00,2.899,R,ugm-3 (Ref.eq),1.04167,R,ugm-3,6.09793,R,ugm-3,7.69514,R,ugm-3
04-01-2023,04:00,4.831,R,ugm-3 (Ref.eq),0.36963,R,ugm-3,5.40281,R,ugm-3,5.96957,R,ugm-3
04-01-2023,05:00,6.763,R,ugm-3 (Ref.eq),0.94087,R,ugm-3,4.01182,R,ugm-3,5.45446,R,ugm-3
04-01-2023,06:00,12.561,R,ugm-3 (Ref.eq),4.77153,R,ugm-3,15.13770,R,ugm-3,22.45394,R,ugm-3
04-01-2023,07:00,13.527,R,ugm-3 (Ref.eq),4.87234,R,ugm-3,18.98965,R,ugm-3,26.46046,R,ugm-3
04-01-2023,08:00,18.358,R,ugm-3 (Ref.eq),9.13983,R,ugm-3,21.28881,R,ugm-3,35.30302,R,ugm-3
04-01-2023,09:00,19.324,R,ugm-3 (Ref.eq),10.04709,R,ugm-3,23.96371,R,ugm-3,39.36904,R,ugm-3
04-01-2023,10:00,14.493,R,ugm-3 (Ref.eq),8.29977,R,ugm-3,21.61068,R,ugm-3,34.33682,R,ugm-3
04-01-2023,11:00,,,,9.94629,R,ugm-3,21.87791,R,ugm-3,37.12867,R,ugm-3
04-01-2023,12:00,16.425,R,ugm-3 (Ref.eq),8.09816,R,ugm-3,17.54531,R,ugm-3,29.96231,R,ugm-3
04-01-2023,13:00,9.662,R,ugm-3 (Ref.eq),5.40997,R,ugm-3,12.19637,R,ugm-3,20.49155,R,ugm-3
04-01-2023,14:00,14.493,R,ugm-3 (Ref.eq),3.05781,R,ugm-3,7.64970,R,ugm-3,12.33828,R,ugm-3
04-01-2023,15:00,12.561,R,ugm-3 (Ref.eq),4.26749,R,ugm-3,8.87995,R,ugm-3,15.42335,R,ugm-3
04-01-2023,16:00,14.493,R,ugm-3 (Ref.eq),4.13308,R,ugm-3,11.28776,R,ugm-3,17.62507,R,ugm-3
04-01-2023,17:00,18.358,R,ugm-3 (Ref.eq),3.19222,R,ugm-3,11.44875,R,ugm-3,16.34342,R,ugm-3
04-01-2023,18:00,13.527,R,ugm-3 (Ref.eq),3.66265,R,ugm-3,11.18122,R,ugm-3,16.79721,R,ugm-3
04-01-2023,19:00,16.425,R,ugm-3 (Ref.eq),3.25942,R,ugm-3,11.12801,R,ugm-3,16.12572,R,ugm-3
04-01-2023,20:00,7.730,R,ugm-3 (Ref.eq),2.48657,R,ugm-3,8.29260,R,ugm-3,12.10529,R,ugm-3
04-01-2023,21:00,9.662,R,ugm-3 (Ref.eq),2.75539,R,ugm-3,5.72429,R,ugm-3,9.94916,R,ugm-3
04-01-2023,22:00,10.628,R,ugm-3 (Ref.eq),1.07527,R,ugm-3,3.79867,R,ugm-3,5.44740,R,ugm-3
04-01-2023,23:00,10.628,R,ugm-3 (Ref.eq),1.24329,R,ugm-3,4.54778,R,ugm-3,6.45413,R,ugm-3
04-01-2023,24:00,15.459,R,ugm-3 (Ref.eq),1.51210,R,ugm-3,4.49425,R,ugm-3,6.81277,R,ugm-3
05-01-2023,01:00,13.527,R,ugm-3 (Ref.eq),0.62738,R,ugm-3,4.28135,R,ugm-3,5.24332,R,ugm-3
05-01-2023,02:00,17.392,R,ugm-3 (Ref.eq),0.40332,R,ugm-3,2.64020,R,ugm-3,3.25862,R,ugm-3
05-01-2023,03:00,16.425,R,ugm-3 (Ref.eq),0.33610,R,ugm-3,2.83651,R,ugm-3,3.35185,R,ugm-3
05-01-2023,04:00,13.527,R,ugm-3 (Ref.eq),0.60498,R,ugm-3,2.72939,R,ugm-3,3.65701,R,ugm-3
05-01-2023,05:00,15.459,R,ugm-3 (Ref.eq),1.20996,R,ugm-3,4.22783,R,ugm-3,6.08307,R,ugm-3
05-01-2023,06:00,18.358,R,ugm-3 (Ref.eq),2.48713,R,ugm-3,8.29518,R,ugm-3,12.10873,R,ugm-3
05-01-2023,07:00,12.561,R,ugm-3 (Ref.eq),12.23400,R,ugm-3,35.69593,R,ugm-3,54.45446,R,ugm-3
05-01-2023,08:00,17.392,R,ugm-3 (Ref.eq),29.74475,R,ugm-3,61.22083,R,ugm-3,106.82881,R,ugm-3
05-01-2023,09:00,15.459,R,ugm-3 (Ref.eq),2.75601,R,ugm-3,45.49588,R,ugm-3,49.72171,R,ugm-3
05-01-2023,10:00,20.290,R,ugm-3 (Ref.eq),4.06680,R,ugm-3,43.08730,R,ugm-3,49.32297,R,ugm-3
05-01-2023,11:00,17.392,R,ugm-3 (Ref.eq),13.98171,R,ugm-3,42.17393,R,ugm-3,63.61226,R,ugm-3
05-01-2023,12:00,8.696,R,ugm-3 (Ref.eq),9.44438,R,ugm-3,29.81135,R,ugm-3,44.29253,R,ugm-3
05-01-2023,13:00,10.628,R,ugm-3 (Ref.eq),9.64604,R,ugm-3,27.40288,R,ugm-3,42.19326,R,ugm-3
05-01-2023,14:00,9.662,R,ugm-3 (Ref.eq),13.24230,R,ugm-3,31.89829,R,ugm-3,52.20286,R,ugm-3
05-01-2023,15:00,8.696,R,ugm-3 (Ref.eq),12.03234,R,ugm-3,32.11332,R,ugm-3,50.56265,R,ugm-3
05-01-2023,16:00,10.628,R,ugm-3 (Ref.eq),10.62073,R,ugm-3,33.23848,R,ugm-3,49.52337,R,ugm-3
05-01-2023,17:00,9.662,R,ugm-3 (Ref.eq),8.70496,R,ugm-3,31.31257,R,ugm-3,44.65999,R,ugm-3
05-01-2023,18:00,12.561,R,ugm-3 (Ref.eq),7.29335,R,ugm-3,26.54918,R,ugm-3,37.73215,R,ugm-3
05-01-2023,19:00,12.561,R,ugm-3 (Ref.eq),6.65476,R,ugm-3,21.94594,R,ugm-3,32.14976,R,ugm-3
05-01-2023,20:00,10.628,R,ugm-3 (Ref.eq),5.84812,R,ugm-3,22.37482,R,ugm-3,31.34182,R,ugm-3
05-01-2023,21:00,6.763,R,ugm-3 (Ref.eq),2.99128,R,ugm-3,15.30971,R,ugm-3,19.89628,R,ugm-3
05-01-2023,22:00,5.797,R,ugm-3 (Ref.eq),1.34440,R,ugm-3,7.38734,R,ugm-3,9.44872,R,ugm-3
05-01-2023,23:00,13.527,R,ugm-3 (Ref.eq),1.41162,R,ugm-3,5.40658,R,ugm-3,7.57103,R,ugm-3
05-01-2023,24:00,8.696,R,ugm-3 (Ref.eq),1.74771,R,ugm-3,10.59960,R,ugm-3,13.27939,R,ugm-3
06-01-2023,01:00,5.797,R,ugm-3 (Ref.eq),1.97223,R,ugm-3,10.20886,R,ugm-3,13.23290,R,ugm-3
06-01-2023,02:00,7.730,R,ugm-3 (Ref.eq),0.87405,R,ugm-3,13.11898,R,ugm-3,14.45918,R,ugm-3
06-01-2023,03:00,11.594,R,ugm-3 (Ref.eq),0.43703,R,ugm-3,5.40827,R,ugm-3,6.07837,R,ugm-3
06-01-2023,04:00,8.696,R,ugm-3 (Ref.eq),0.70597,R,ugm-3,6.31858,R,ugm-3,7.40105,R,ugm-3
06-01-2023,05:00,18.358,R,ugm-3 (Ref.eq),2.75663,R,ugm-3,11.19084,R,ugm-3,15.41762,R,ugm-3
06-01-2023,06:00,17.392,R,ugm-3 (Ref.eq),3.79877,R,ugm-3,17.99157,R,ugm-3,23.81627,R,ugm-3
06-01-2023,07:00,15.459,R,ugm-3 (Ref.eq),2.21875,R,ugm-3,28.64940,R,ugm-3,32.05144,R,ugm-3
06-01-2023,08:00,26.087,R,ugm-3 (Ref.eq),30.42380,R,ugm-3,67.78411,R,ugm-3,114.43329,R,ugm-3
06-01-2023,09:00,28.986,R,ugm-3 (Ref.eq),29.04549,R,ugm-3,66.55392,R,ugm-3,111.08971,R,ugm-3
06-01-2023,10:00,24.155,R,ugm-3 (Ref.eq),30.65913,R,ugm-3,60.66305,R,ugm-3,107.67306,R,ugm-3
06-01-2023,11:00,19.324,R,ugm-3 (Ref.eq),9.88353,R,ugm-3,39.46559,R,ugm-3,54.62013,R,ugm-3
06-01-2023,12:00,14.493,R,ugm-3 (Ref.eq),9.11033,R,ugm-3,31.54020,R,ugm-3,45.50918,R,ugm-3
06-01-2023,13:00,20.290,R,ugm-3 (Ref.eq),8.70692,R,ugm-3,22.75756,R,ugm-3,36.10798,R,ugm-3
06-01-2023,14:00,12.561,R,ugm-3 (Ref.eq),7.46308,R,ugm-3,23.13333,R,ugm-3,34.57655,R,ugm-3
06-01-2023,15:00,10.628,R,ugm-3 (Ref.eq),2.45408,R,ugm-3,18.52996,R,ugm-3,22.29282,R,ugm-3
06-01-2023,16:00,6.763,R,ugm-3 (Ref.eq),1.88258,R,ugm-3,25.38598,R,ugm-3,28.27256,R,ugm-3
06-01-2023,17:00,8.696,R,ugm-3 (Ref.eq),1.21023,R,ugm-3,19.65577,R,ugm-3,21.51143,R,ugm-3
06-01-2023,18:00,11.594,R,ugm-3 (Ref.eq),0.80682,R,ugm-3,25.06581,R,ugm-3,26.30292,R,ugm-3
06-01-2023,19:00,11.594,R,ugm-3 (Ref.eq),0.67235,R,ugm-3,18.04972,R,ugm-3,19.08065,R,ugm-3
06-01-2023,20:00,7.730,R,ugm-3 (Ref.eq),0.63873,R,ugm-3,17.19300,R,ugm-3,18.17237,R,ugm-3
06-01-2023,21:00,5.797,R,ugm-3 (Ref.eq),0.90767,R,ugm-3,15.74693,R,ugm-3,17.13867,R,ugm-3
06-01-2023,22:00,5.797,R,ugm-3 (Ref.eq),0.73958,R,ugm-3,12.10492,R,ugm-3,13.23894,R,ugm-3
06-01-2023,23:00,5.797,R,ugm-3 (Ref.eq),1.21023,R,ugm-3,10.01589,R,ugm-3,11.87155,R,ugm-3
06-01-2023,24:00,4.831,R,ugm-3 (Ref.eq),0.80682,R,ugm-3,5.99886,R,ugm-3,7.23597,R,ugm-3
07-01-2023,01:00,3.865,R,ugm-3 (Ref.eq),0.53800,R,ugm-3,4.35719,R,ugm-3,5.18212,R,ugm-3
07-01-2023,02:00,9.662,R,ugm-3 (Ref.eq),0.90788,R,ugm-3,3.53557,R,ugm-3,4.92762,R,ugm-3
07-01-2023,03:00,5.797,R,ugm-3 (Ref.eq),0.33625,R,ugm-3,2.94656,R,ugm-3,3.46214,R,ugm-3
07-01-2023,04:00,5.797,R,ugm-3 (Ref.eq),0.33625,R,ugm-3,3.80384,R,ugm-3,4.31942,R,ugm-3
07-01-2023,05:00,2.899,R,ugm-3 (Ref.eq),0.63888,R,ugm-3,3.53585,R,ugm-3,4.51545,R,ugm-3
07-01-2023,06:00,3.865,R,ugm-3 (Ref.eq),0.26900,R,ugm-3,2.89314,R,ugm-3,3.30560,R,ugm-3
07-01-2023,07:00,3.865,R,ugm-3 (Ref.eq),0.43713,R,ugm-3,3.91111,R,ugm-3,4.58136,R,ugm-3
07-01-2023,08:00,1.932,R,ugm-3 (Ref.eq),1.10963,R,ugm-3,7.23283,R,ugm-3,8.93423,R,ugm-3
07-01-2023,09:00,0.966,R,ugm-3 (Ref.eq),1.74850,R,ugm-3,13.01937,R,ugm-3,15.70037,R,ugm-3
07-01-2023,10:00,5.797,R,ugm-3 (Ref.eq),1.91663,R,ugm-3,13.01948,R,ugm-3,15.95826,R,ugm-3
07-01-2023,11:00,3.865,R,ugm-3 (Ref.eq),8.33901,R,ugm-3,28.34106,R,ugm-3,41.12736,R,ugm-3
07-01-2023,12:00,3.865,R,ugm-3 (Ref.eq),8.97789,R,ugm-3,25.60837,R,ugm-3,39.37426,R,ugm-3
07-01-2023,13:00,4.831,R,ugm-3 (Ref.eq),10.35651,R,ugm-3,23.46461,R,ugm-3,39.34437,R,ugm-3
07-01-2023,14:00,4.831,R,ugm-3 (Ref.eq),8.03638,R,ugm-3,23.19823,R,ugm-3,35.52051,R,ugm-3
07-01-2023,15:00,5.797,R,ugm-3 (Ref.eq),4.37126,R,ugm-3,16.50218,R,ugm-3,23.20468,R,ugm-3
07-01-2023,16:00,11.594,R,ugm-3 (Ref.eq),8.47351,R,ugm-3,25.55642,R,ugm-3,38.54896,R,ugm-3
07-01-2023,17:00,8.696,R,ugm-3 (Ref.eq),6.55688,R,ugm-3,27.32611,R,ugm-3,37.37985,R,ugm-3
07-01-2023,18:00,7.730,R,ugm-3 (Ref.eq),9.41501,R,ugm-3,25.98533,R,ugm-3,40.42148,R,ugm-3
07-01-2023,19:00,9.662,R,ugm-3 (Ref.eq),4.43851,R,ugm-3,18.27147,R,ugm-3,25.07708,R,ugm-3
07-01-2023,20:00,13.527,R,ugm-3 (Ref.eq),2.08475,R,ugm-3,12.37808,R,ugm-3,15.57466,R,ugm-3
07-01-2023,21:00,11.594,R,ugm-3 (Ref.eq),1.21050,R,ugm-3,8.09150,R,ugm-3,9.94757,R,ugm-3
07-01-2023,22:00,12.561,R,ugm-3 (Ref.eq),2.28650,R,ugm-3,9.75238,R,ugm-3,13.25830,R,ugm-3
07-01-2023,23:00,10.628,R,ugm-3 (Ref.eq),1.95025,R,ugm-3,6.85873,R,ugm-3,9.84908,R,ugm-3
07-01-2023,24:00,11.594,R,ugm-3 (Ref.eq),1.98388,R,ugm-3,7.07318,R,ugm-3,10.11508,R,ugm-3
08-01-2023,01:00,13.527,R,ugm-3 (Ref.eq),0.98656,R,ugm-3,4.07329,R,ugm-3,5.58598,R,ugm-3
08-01-2023,02:00,15.459,R,ugm-3 (Ref.eq),1.27804,R,ugm-3,5.57410,R,ugm-3,7.53373,R,ugm-3
08-01-2023,03:00,11.594,R,ugm-3 (Ref.eq),1.07624,R,ugm-3,6.32475,R,ugm-3,7.97496,R,ugm-3
08-01-2023,04:00,8.696,R,ugm-3 (Ref.eq),0.53812,R,ugm-3,2.67997,R,ugm-3,3.50508,R,ugm-3
08-01-2023,05:00,10.628,R,ugm-3 (Ref.eq),0.33633,R,ugm-3,4.66355,R,ugm-3,5.17925,R,ugm-3
08-01-2023,06:00,8.696,R,ugm-3 (Ref.eq),0.10090,R,ugm-3,3.00193,R,ugm-3,3.15664,R,ugm-3
08-01-2023,07:00,5.797,R,ugm-3 (Ref.eq),1.17714,R,ugm-3,8.46935,R,ugm-3,10.27428,R,ugm-3
08-01-2023,08:00,2.899,R,ugm-3 (Ref.eq),0.73992,R,ugm-3,6.00372,R,ugm-3,7.13825,R,ugm-3
08-01-2023,09:00,1.932,R,ugm-3 (Ref.eq),0.47086,R,ugm-3,9.00607,R,ugm-3,9.72804,R,ugm-3
08-01-2023,10:00,4.831,R,ugm-3 (Ref.eq),0.70629,R,ugm-3,11.25768,R,ugm-3,12.34063,R,ugm-3
08-01-2023,11:00,6.763,R,ugm-3 (Ref.eq),0.84082,R,ugm-3,10.07832,R,ugm-3,11.36755,R,ugm-3
08-01-2023,12:00,8.696,R,ugm-3 (Ref.eq),0.90808,R,ugm-3,11.41871,R,ugm-3,12.81108,R,ugm-3
08-01-2023,13:00,8.696,R,ugm-3 (Ref.eq),9.51803,R,ugm-3,29.15959,R,ugm-3,43.75370,R,ugm-3
08-01-2023,14:00,9.662,R,ugm-3 (Ref.eq),15.06741,R,ugm-3,31.46219,R,ugm-3,54.56523,R,ugm-3
08-01-2023,15:00,4.831,R,ugm-3 (Ref.eq),8.07183,R,ugm-3,28.89312,R,ugm-3,41.26975,R,ugm-3
08-01-2023,16:00,5.797,R,ugm-3 (Ref.eq),6.59199,R,ugm-3,29.91304,R,ugm-3,40.02062,R,ugm-3
08-01-2023,17:00,10.628,R,ugm-3 (Ref.eq),2.55608,R,ugm-3,24.50062,R,ugm-3,28.41989,R,ugm-3
08-01-2023,18:00,7.730,R,ugm-3 (Ref.eq),4.23771,R,ugm-3,30.45135,R,ugm-3,36.94908,R,ugm-3
08-01-2023,19:00,7.730,R,ugm-3 (Ref.eq),5.31395,R,ugm-3,27.18054,R,ugm-3,35.32849,R,ugm-3
08-01-2023,20:00,11.594,R,ugm-3 (Ref.eq),8.13909,R,ugm-3,27.92994,R,ugm-3,40.40971,R,ugm-3
08-01-2023,21:00,9.662,R,ugm-3 (Ref.eq),3.86775,R,ugm-3,19.24666,R,ugm-3,25.17713,R,ugm-3
08-01-2023,22:00,13.527,R,ugm-3 (Ref.eq),2.99330,R,ugm-3,20.37338,R,ugm-3,24.96305,R,ugm-3
08-01-2023,23:00,11.594,R,ugm-3 (Ref.eq),5.44848,R,ugm-3,19.13905,R,ugm-3,27.49328,R,ugm-3
08-01-2023,24:00,7.730,R,ugm-3 (Ref.eq),1.88343,R,ugm-3,12.92139,R,ugm-3,15.80927,R,ugm-3
09-01-2023,01:00,12.561,R,ugm-3 (Ref.eq),4.26109,R,ugm-3,18.01736,R,ugm-3,24.55094,R,ugm-3
09-01-2023,02:00,9.662,R,ugm-3 (Ref.eq),0.43732,R,ugm-3,11.15515,R,ugm-3,11.82570,R,ugm-3
09-01-2023,03:00,10.628,R,ugm-3 (Ref.eq),0.94193,R,ugm-3,10.24323,R,ugm-3,11.68750,R,ugm-3
09-01-2023,04:00,12.561,R,ugm-3 (Ref.eq),0.97557,R,ugm-3,13.51498,R,ugm-3,15.01083,R,ugm-3
09-01-2023,05:00,17.392,R,ugm-3 (Ref.eq),3.33038,R,ugm-3,12.22649,R,ugm-3,17.33300,R,ugm-3
09-01-2023,06:00,15.459,R,ugm-3 (Ref.eq),7.29992,R,ugm-3,21.44939,R,ugm-3,32.64244,R,ugm-3
09-01-2023,07:00,9.662,R,ugm-3 (Ref.eq),9.41925,R,ugm-3,27.13368,R,ugm-3,41.57633,R,ugm-3
09-01-2023,08:00,10.628,R,ugm-3 (Ref.eq),7.50176,R,ugm-3,19.78711,R,ugm-3,31.28965,R,ugm-3
09-01-2023,09:00,9.662,R,ugm-3 (Ref.eq),9.11649,R,ugm-3,26.49099,R,ugm-3,40.46941,R,ugm-3
09-01-2023,10:00,18.358,R,ugm-3 (Ref.eq),11.50494,R,ugm-3,23.53978,R,ugm-3,41.18045,R,ugm-3
09-01-2023,11:00,,,,4.30594,R,ugm-3,9.11585,R,ugm-3,15.71821,R,ugm-3
09-01-2023,12:00,,,,4.91147,R,ugm-3,9.22288,R,ugm-3,16.75369,R,ugm-3
09-01-2023,13:00,12.561,R,ugm-3 (Ref.eq),5.04603,R,ugm-3,9.86660,R,ugm-3,17.60373,R,ugm-3
09-01-2023,14:00,20.290,R,ugm-3 (Ref.eq),4.50779,R,ugm-3,8.52606,R,ugm-3,15.43790,R,ugm-3
09-01-2023,15:00,17.392,R,ugm-3 (Ref.eq),4.54142,R,ugm-3,8.95529,R,ugm-3,15.91871,R,ugm-3
09-01-2023,16:00,23.189,R,ugm-3 (Ref.eq),7.73724,R,ugm-3,20.05734,R,ugm-3,31.92095,R,ugm-3
09-01-2023,17:00,19.324,R,ugm-3 (Ref.eq),6.32436,R,ugm-3,16.73262,R,ugm-3,26.42983,R,ugm-3
09-01-2023,18:00,25.121,R,ugm-3 (Ref.eq),2.89306,R,ugm-3,12.49716,R,ugm-3,16.93311,R,ugm-3
09-01-2023,19:00,17.392,R,ugm-3 (Ref.eq),2.92670,R,ugm-3,10.13695,R,ugm-3,14.62449,R,ugm-3
09-01-2023,20:00,19.324,R,ugm-3 (Ref.eq),4.50779,R,ugm-3,12.65742,R,ugm-3,19.56926,R,ugm-3
09-01-2023,21:00,19.324,R,ugm-3 (Ref.eq),3.73406,R,ugm-3,13.89194,R,ugm-3,19.61742,R,ugm-3
09-01-2023,22:00,14.493,R,ugm-3 (Ref.eq),2.32117,R,ugm-3,8.52835,R,ugm-3,12.08743,R,ugm-3
09-01-2023,23:00,21.256,R,ugm-3 (Ref.eq),1.44653,R,ugm-3,6.97324,R,ugm-3,9.19122,R,ugm-3
09-01-2023,24:00,29.952,R,ugm-3 (Ref.eq),1.81657,R,ugm-3,10.13834,R,ugm-3,12.92370,R,ugm-3
10-01-2023,01:00,27.054,R,ugm-3 (Ref.eq),1.16646,R,ugm-3,9.58626,R,ugm-3,11.37480,R,ugm-3
10-01-2023,02:00,20.290,R,ugm-3 (Ref.eq),0.49350,R,ugm-3,8.94295,R,ugm-3,9.69964,R,ugm-3
10-01-2023,03:00,16.425,R,ugm-3 (Ref.eq),1.11038,R,ugm-3,8.10197,R,ugm-3,9.80452,R,ugm-3
10-01-2023,04:00,16.425,R,ugm-3 (Ref.eq),0.94214,R,ugm-3,6.49235,R,ugm-3,7.93694,R,ugm-3
10-01-2023,05:00,21.256,R,ugm-3 (Ref.eq),0.84119,R,ugm-3,6.33153,R,ugm-3,7.62135,R,ugm-3
10-01-2023,06:00,17.392,R,ugm-3 (Ref.eq),1.27862,R,ugm-3,8.85347,R,ugm-3,10.81398,R,ugm-3
10-01-2023,07:00,9.662,R,ugm-3 (Ref.eq),1.85063,R,ugm-3,11.85834,R,ugm-3,14.69593,R,ugm-3
10-01-2023,08:00,6.763,R,ugm-3 (Ref.eq),0.57201,R,ugm-3,13.36197,R,ugm-3,14.23904,R,ugm-3
10-01-2023,09:00,6.763,R,ugm-3 (Ref.eq),0.74025,R,ugm-3,18.88950,R,ugm-3,20.02454,R,ugm-3
10-01-2023,10:00,7.730,R,ugm-3 (Ref.eq),1.88428,R,ugm-3,18.83532,R,ugm-3,21.72450,R,ugm-3
10-01-2023,11:00,6.763,R,ugm-3 (Ref.eq),2.52358,R,ugm-3,21.25013,R,ugm-3,25.11957,R,ugm-3
10-01-2023,12:00,5.797,R,ugm-3 (Ref.eq),5.88836,R,ugm-3,23.77047,R,ugm-3,32.79916,R,ugm-3
10-01-2023,13:00,4.831,R,ugm-3 (Ref.eq),5.11446,R,ugm-3,21.94662,R,ugm-3,29.78869,R,ugm-3
10-01-2023,14:00,5.797,R,ugm-3 (Ref.eq),8.21005,R,ugm-3,22.32051,R,ugm-3,34.90909,R,ugm-3
10-01-2023,15:00,6.763,R,ugm-3 (Ref.eq),12.98803,R,ugm-3,30.90465,R,ugm-3,50.81936,R,ugm-3
10-01-2023,16:00,9.662,R,ugm-3 (Ref.eq),10.63269,R,ugm-3,28.65253,R,ugm-3,44.95576,R,ugm-3
10-01-2023,17:00,7.730,R,ugm-3 (Ref.eq),7.53710,R,ugm-3,19.42367,R,ugm-3,30.98039,R,ugm-3
10-01-2023,18:00,4.831,R,ugm-3 (Ref.eq),7.33521,R,ugm-3,21.08787,R,ugm-3,32.33504,R,ugm-3
10-01-2023,19:00,0.966,R,ugm-3 (Ref.eq),4.81163,R,ugm-3,15.77633,R,ugm-3,23.15405,R,ugm-3
10-01-2023,20:00,11.594,R,ugm-3 (Ref.eq),3.12924,R,ugm-3,5.95557,R,ugm-3,10.75367,R,ugm-3
10-01-2023,21:00,10.628,R,ugm-3 (Ref.eq),2.08616,R,ugm-3,8.96207,R,ugm-3,12.16081,R,ugm-3
10-01-2023,22:00,10.628,R,ugm-3 (Ref.eq),1.27862,R,ugm-3,7.08414,R,ugm-3,9.04466,R,ugm-3
10-01-2023,23:00,10.628,R,ugm-3 (Ref.eq),1.41321,R,ugm-3,4.88347,R,ugm-3,7.05036,R,ugm-3
10-01-2023,24:00,11.594,R,ugm-3 (Ref.eq),1.11038,R,ugm-3,4.18595,R,ugm-3,5.88851,R,ugm-3
11-01-2023,01:00,19.324,R,ugm-3 (Ref.eq),0.67311,R,ugm-3,3.79336,R,ugm-3,4.82545,R,ugm-3
11-01-2023,02:00,18.358,R,ugm-3 (Ref.eq),0.50483,R,ugm-3,3.05982,R,ugm-3,3.83388,R,ugm-3
11-01-2023,03:00,21.256,R,ugm-3 (Ref.eq),0.80773,R,ugm-3,4.72397,R,ugm-3,5.96247,R,ugm-3
11-01-2023,04:00,13.527,R,ugm-3 (Ref.eq),0.84138,R,ugm-3,3.97237,R,ugm-3,5.26247,R,ugm-3
11-01-2023,05:00,12.561,R,ugm-3 (Ref.eq),2.75974,R,ugm-3,9.44737,R,ugm-3,13.67891,R,ugm-3
11-01-2023,06:00,16.425,R,ugm-3 (Ref.eq),3.29822,R,ugm-3,7.46056,R,ugm-3,12.51776,R,ugm-3
11-01-2023,07:00,18.358,R,ugm-3 (Ref.eq),8.64942,R,ugm-3,22.91978,R,ugm-3,36.18204,R,ugm-3
11-01-2023,08:00,21.256,R,ugm-3 (Ref.eq),22.31349,R,ugm-3,47.60836,R,ugm-3,81.82190,R,ugm-3
11-01-2023,09:00,21.256,R,ugm-3 (Ref.eq),11.10626,R,ugm-3,53.30864,R,ugm-3,70.33799,R,ugm-3
11-01-2023,10:00,19.324,R,ugm-3 (Ref.eq),6.05796,R,ugm-3,43.75562,R,ugm-3,53.04436,R,ugm-3
11-01-2023,11:00,,,,10.18635,R,ugm-3,29.56001,R,ugm-3,45.17885,R,ugm-3
11-01-2023,12:00,18.358,R,ugm-3 (Ref.eq),,,,,,,,,
11-01-2023,13:00,13.527,R,ugm-3 (Ref.eq),7.47148,R,ugm-3,19.48600,R,ugm-3,30.94211,R,ugm-3
11-01-2023,14:00,7.730,R,ugm-3 (Ref.eq),9.65908,R,ugm-3,18.73293,R,ugm-3,33.54331,R,ugm-3
11-01-2023,15:00,11.594,R,ugm-3 (Ref.eq),11.61109,R,ugm-3,30.86729,R,ugm-3,48.67071,R,ugm-3
11-01-2023,16:00,10.628,R,ugm-3 (Ref.eq),6.69741,R,ugm-3,13.63431,R,ugm-3,23.90353,R,ugm-3
11-01-2023,17:00,14.493,R,ugm-3 (Ref.eq),4.34154,R,ugm-3,14.38801,R,ugm-3,21.04494,R,ugm-3
11-01-2023,18:00,28.020,R,ugm-3 (Ref.eq),5.25023,R,ugm-3,22.06655,R,ugm-3,30.11679,R,ugm-3
11-01-2023,19:00,31.885,R,ugm-3 (Ref.eq),7.63976,R,ugm-3,33.98649,R,ugm-3,45.70062,R,ugm-3
11-01-2023,20:00,28.020,R,ugm-3 (Ref.eq),7.77438,R,ugm-3,43.97516,R,ugm-3,55.89571,R,ugm-3
11-01-2023,21:00,28.020,R,ugm-3 (Ref.eq),4.40885,R,ugm-3,32.80831,R,ugm-3,39.56845,R,ugm-3
11-01-2023,22:00,9.662,R,ugm-3 (Ref.eq),1.78373,R,ugm-3,16.16303,R,ugm-3,18.89805,R,ugm-3
11-01-2023,23:00,8.696,R,ugm-3 (Ref.eq),0.50483,R,ugm-3,10.57910,R,ugm-3,11.35316,R,ugm-3